Temp
79 74 73 74 76 79 78 79 80 81 81 80 78 81 83 87 87 89 87 86 85 79 79 79 79 79 79 79 79 79 79 79
75 70 74 75 80 79 77 79 81 81 78 79 82 83 85 89 87 87 88 87 82 79 79 79 79 79 79 79 79 79 79 79
70 70 74 78 80 79 80 79 81 80 78 77 81 84 86 87 87 87 88 89 87 79 79 79 80 79 79 79 79 79 79 79
69 69 75 78 80 79 80 81 79 80 78 79 83 84 84 87 87 89 86 87 86 80 79 79 79 79 79 79 79 79 79 79
68 71 72 77 80 77 80 82 79 82 80 79 81 84 84 84 86 88 87 87 87 87 83 79 79 78 78 78 78 78 78 78
68 70 72 79 81 80 79 82 84 86 81 81 83 83 85 86 85 86 86 87 86 86 89 87 86 79 78 78 78 78 78 78
69 69 75 80 79 84 85 81 83 84 83 84 85 85 85 84 83 84 84 86 87 88 87 88 89 84 79 79 78 78 79 78
73 75 77 81 78 82 81 80 81 82 80 82 83 83 83 83 81 81 83 85 88 87 85 86 86 86 86 87 87 86 86 85
75 78 78 79 81 83 80 77 82 85 81 81 82 82 84 84 86 85 85 85 86 84 83 86 87 86 86 87 86 85 84 84
78 78 77 77 83 81 81 84 89 88 86 81 80 82 84 84 85 85 83 84 84 84 82 83 86 84 85 85 85 85 85 83
79 78 76 77 79 80 83 88 88 86 84 81 81 82 84 86 86 85 84 84 83 83 81 81 81 85 84 83 84 85 84 84
78 80 77 76 77 77 86 88 86 83 86 84 82 81 81 81 83 82 83 84 84 82 81 81 81 81 82 83 84 82 83 84
77 79 78 79 74 76 86 83 84 85 85 83 84 82 82 83 82 83 83 83 82 81 81 80 81 81 82 82 84 82 83 81
75 75 76 77 70 81 83 81 82 84 85 83 84 82 85 85 83 84 83 81 81 84 83 80 81 82 83 83 83 83 83 82
69 74 75 74 72 79 81 79 78 81 84 84 85 83 83 85 85 83 83 82 80 81 83 81 80 82 82 81 82 83 83 83
63 71 72 71 72 77 78 76 75 77 78 79 80 81 81 81 82 81 81 82 81 81 81 80 82 80 81 82 83 84 83 83
68 72 69 69 71 73 74 74 72 72 72 73 74 77 78 76 78 81 81 80 80 79 79 79 80 80 81 81 82 81 83 81
67 69 70 68 70 70 69 68 69 70 70 70 72 74 74 75 74 75 79 79 79 78 79 78 81 81 84 83 84 85 84 82
64 66 68 68 66 65 67 69 70 70 71 72 71 71 72 73 73 74 73 76 80 79 78 78 80 81 80 81 79 80 79 81
63 64 60 65 58 63 64 64 66 68 69 70 71 72 73 72 72 73 73 73 74 79 79 79 78 79 77 81 81 83 83 83
MSLP
1011.41 1010.43 1009.22 1008.68 1008.63 1008.69 1009.08 1009.48 1009.44 1009.63 1010.00 1009.94 1010.07 1010.34 1010.53 1010.97 1011.69 1011.89 1012.63 1013.10 1013.78 1014.20 1014.07 1014.41 1014.76 1014.90 1015.41 1015.81 1016.17 1016.54 1016.81 1016.90
1011.35 1010.14 1009.51 1008.93 1008.63 1008.84 1009.02 1009.35 1009.60 1009.48 1009.60 1010.27 1010.58 1010.46 1010.88 1011.25 1011.76 1012.23 1012.84 1013.41 1014.05 1014.35 1014.28 1014.46 1014.89 1015.12 1015.55 1015.99 1016.23 1016.40 1016.65 1017.15
1010.91 1010.19 1009.56 1009.20 1009.13 1009.12 1008.68 1008.89 1009.11 1009.47 1009.61 1010.11 1010.69 1010.93 1011.20 1011.49 1011.97 1012.27 1012.88 1013.42 1014.24 1014.63 1014.64 1014.84 1015.17 1015.26 1015.58 1015.93 1016.41 1016.87 1017.08 1017.20
1010.37 1010.04 1009.66 1009.35 1009.26 1009.23 1008.70 1008.82 1009.14 1009.20 1009.40 1010.02 1010.73 1010.83 1011.28 1011.68 1012.07 1012.37 1012.85 1013.57 1014.15 1014.86 1014.96 1014.98 1015.26 1015.44 1015.82 1016.14 1016.47 1016.77 1017.00 1017.27
1010.60 1010.01 1009.58 1009.28 1009.26 1009.00 1008.55 1008.39 1008.81 1009.02 1008.95 1010.05 1010.49 1011.01 1011.55 1011.93 1012.27 1012.58 1013.01 1013.45 1014.03 1014.33 1014.99 1015.20 1015.31 1015.51 1015.91 1016.14 1016.42 1016.72 1017.03 1017.24
1010.75 1009.99 1009.35 1009.33 1008.96 1008.84 1008.62 1008.28 1008.96 1009.00 1008.72 1009.25 1010.09 1010.97 1011.35 1011.95 1012.41 1012.83 1013.27 1013.47 1013.89 1014.36 1014.60 1014.95 1015.46 1015.84 1015.98 1016.29 1016.51 1016.77 1017.02 1017.38
1010.50 1010.10 1009.29 1009.34 1008.91 1008.62 1008.55 1008.40 1008.73 1009.04 1009.15 1009.58 1010.13 1010.87 1011.24 1011.78 1012.48 1012.90 1013.31 1013.49 1013.67 1014.02 1014.41 1014.68 1015.17 1015.68 1016.24 1016.38 1016.50 1016.90 1017.17 1017.50
1010.77 1010.32 1009.56 1009.12 1008.97 1008.58 1008.39 1008.28 1008.46 1008.81 1009.64 1009.97 1010.35 1010.62 1010.89 1011.33 1011.98 1012.65 1012.98 1013.36 1013.62 1013.83 1014.30 1014.78 1015.09 1015.48 1015.93 1016.05 1016.30 1016.62 1016.85 1017.37
1010.61 1010.37 1009.96 1009.18 1008.63 1008.57 1008.22 1007.98 1008.02 1008.12 1009.16 1009.86 1010.26 1010.59 1010.70 1011.09 1011.45 1012.02 1012.76 1013.22 1013.58 1014.06 1014.34 1014.46 1014.76 1015.32 1015.59 1015.74 1016.12 1016.48 1016.85 1017.18
1010.46 1010.29 1010.03 1009.35 1008.63 1008.25 1008.12 1007.59 1007.64 1008.14 1008.66 1009.54 1010.02 1010.18 1010.46 1010.76 1011.18 1011.81 1012.46 1012.91 1013.39 1013.78 1014.25 1014.47 1014.59 1015.01 1015.23 1015.43 1015.83 1016.29 1016.58 1017.15
1010.26 1010.12 1010.05 1009.64 1008.76 1008.32 1007.74 1007.77 1007.97 1008.20 1008.68 1009.30 1009.97 1010.35 1010.62 1010.81 1011.24 1011.69 1012.10 1012.54 1013.13 1013.61 1013.89 1014.19 1014.54 1014.59 1015.07 1015.28 1015.61 1015.97 1016.33 1016.85
1009.99 1009.56 1009.61 1009.43 1008.95 1008.86 1007.64 1007.61 1007.85 1008.18 1008.35 1008.80 1009.57 1010.27 1010.76 1010.86 1011.05 1011.44 1011.95 1012.39 1013.06 1013.42 1013.77 1014.02 1014.21 1014.41 1014.73 1015.01 1015.29 1015.79 1016.08 1016.29
1009.57 1009.28 1009.02 1009.05 1008.83 1008.28 1007.78 1007.95 1007.96 1008.00 1008.37 1008.90 1009.27 1009.99 1009.98 1010.34 1010.63 1011.08 1011.52 1012.19 1012.61 1013.27 1013.58 1013.76 1013.81 1014.03 1014.29 1014.63 1014.94 1015.42 1015.63 1016.13
1009.20 1009.25 1009.20 1009.02 1008.14 1007.80 1007.99 1008.22 1008.17 1008.22 1008.15 1008.55 1008.87 1009.29 1009.64 1010.04 1010.40 1010.77 1011.19 1011.42 1012.17 1012.56 1013.00 1013.40 1013.41 1013.72 1013.80 1014.16 1014.57 1014.93 1015.27 1015.59
1009.37 1009.44 1009.13 1009.01 1008.09 1008.00 1008.26 1008.38 1008.30 1008.56 1008.53 1008.42 1008.64 1009.13 1009.32 1009.58 1009.86 1010.31 1010.42 1010.97 1011.46 1011.95 1012.16 1012.70 1013.26 1013.48 1013.76 1014.19 1014.53 1014.72 1015.00 1015.13
1009.66 1009.60 1009.26 1008.94 1008.40 1008.54 1008.87 1008.82 1008.92 1009.14 1009.46 1009.54 1009.47 1009.71 1009.89 1009.75 1010.00 1010.32 1010.72 1011.10 1011.41 1011.59 1011.91 1012.41 1012.85 1013.34 1013.72 1014.00 1014.06 1014.27 1014.38 1014.63
1009.56 1009.51 1009.33 1008.90 1008.74 1009.20 1009.67 1009.68 1009.88 1010.19 1010.50 1010.57 1010.51 1010.65 1010.36 1010.26 1009.89 1009.74 1009.83 1010.35 1010.91 1011.40 1011.62 1012.13 1012.22 1012.44 1012.83 1012.83 1013.39 1013.67 1013.64 1014.07
1009.27 1009.30 1009.20 1009.15 1009.14 1010.06 1010.58 1011.09 1011.37 1011.38 1011.69 1011.88 1011.45 1011.17 1011.13 1010.72 1010.44 1010.24 1009.98 1009.75 1010.03 1010.44 1010.97 1011.44 1011.63 1011.57 1011.73 1012.14 1012.56 1012.82 1013.15 1013.72
1009.25 1009.35 1009.36 1009.22 1009.39 1010.31 1011.39 1011.72 1011.89 1012.06 1012.32 1012.33 1012.22 1011.90 1011.53 1011.22 1010.89 1010.45 1010.14 1010.02 1009.72 1009.65 1010.09 1010.83 1011.27 1011.39 1011.75 1012.14 1012.46 1012.47 1012.81 1013.21
1009.24 1009.14 1008.82 1009.36 1009.07 1010.30 1011.41 1011.96 1012.36 1012.70 1012.73 1012.62 1012.31 1011.97 1011.53 1011.03 1010.89 1010.79 1010.43 1010.03 1009.59 1009.29 1009.47 1009.81 1010.49 1010.95 1010.58 1010.29 1010.64 1010.84 1011.53 1012.33
Wind_Speed
2 1 2 2 3 4 2 4 7 7 2 1 0 2 8 7 11 16 16 16 15 17 20 19 18 18 17 16 16 15 15 15
3 3 3 3 3 4 2 4 6 3 3 1 2 4 4 11 16 17 16 15 17 16 18 19 18 18 17 16 15 16 16 13
2 3 3 6 5 4 7 2 6 4 2 1 4 1 6 13 13 16 15 13 15 14 16 17 18 18 17 16 15 13 13 13
5 3 3 6 5 6 9 5 4 4 2 3 4 6 9 12 13 15 16 14 14 13 13 15 16 16 16 15 14 14 14 13
4 3 2 4 9 4 6 9 5 1 2 3 5 9 11 10 11 13 14 14 13 14 13 13 15 16 15 15 14 14 13 13
3 4 3 4 6 4 4 7 1 3 3 1 7 13 13 12 13 13 13 13 13 12 14 13 12 13 14 14 13 13 13 12
4 5 2 4 9 1 2 2 3 5 2 3 14 15 14 13 12 11 10 12 13 14 12 12 11 12 11 13 13 11 11 11
1 2 6 11 5 10 2 4 5 3 4 9 15 15 15 15 14 14 14 14 12 12 12 11 9 10 11 10 9 9 10 10
3 7 7 8 8 1 1 4 6 6 7 13 15 14 14 14 15 15 13 11 12 11 11 12 10 8 6 6 6 7 10 8
3 3 3 5 8 5 4 2 4 3 8 15 16 16 15 15 15 16 16 15 13 13 12 13 9 9 8 7 7 7 8 9
6 8 7 4 9 4 6 5 5 5 12 14 14 13 11 11 12 13 16 16 15 14 13 12 11 9 8 8 8 8 7 9
5 6 4 4 1 5 7 5 5 2 9 16 16 14 11 12 13 14 13 14 14 15 13 12 12 11 9 8 9 8 8 9
6 3 3 7 4 8 5 3 8 8 6 8 14 13 16 14 14 14 13 12 16 15 15 15 15 13 10 8 9 8 8 10
2 3 2 5 6 8 3 5 11 11 9 9 12 17 14 13 13 13 13 17 15 14 16 16 14 11 9 9 8 8 8 8
3 1 1 4 5 3 4 7 12 12 10 8 8 9 14 15 14 14 16 15 17 17 18 17 13 10 9 8 8 7 7 8
5 3 2 3 10 4 8 4 5 6 5 8 10 10 12 12 7 6 8 12 13 13 15 15 10 9 7 8 8 8 8 8
7 5 4 5 5 8 10 13 13 14 13 12 12 11 13 13 11 7 7 9 12 12 13 11 12 12 11 11 9 9 9 11
8 5 9 4 2 10 12 13 13 13 14 12 13 15 15 15 12 9 9 11 13 15 15 14 12 10 8 9 9 8 7 8
4 4 2 5 5 7 10 13 14 15 13 14 14 14 16 16 14 13 10 10 13 15 15 14 14 9 7 6 4 6 8 8
3 6 6 4 5 6 8 11 13 13 14 15 17 17 17 19 18 15 13 12 13 14 16 15 16 13 16 12 12 11 9 8
Wind_Direction
185 170 194 254 226 343 305 196 195 172 248 221 132 107 130 109 143 150 149 149 154 155 146 144 141 133 131 127 126 127 129 134
233 150 193 265 325 270 211 196 208 167 188 171 51 135 61 147 148 149 151 153 154 161 150 145 143 136 134 135 137 139 139 135
146 193 269 257 289 270 237 200 162 195 126 217 135 73 132 148 157 154 148 154 161 160 149 145 148 145 143 143 140 138 135 137
165 199 258 283 289 283 234 202 143 205 244 116 124 144 140 153 156 156 149 159 157 160 154 150 150 147 147 145 146 149 151 147
152 170 255 341 344 219 249 215 193 41 256 94 173 134 140 147 151 156 159 162 165 162 161 156 157 155 154 156 156 155 154 153
200 177 86 0 345 322 217 224 76 174 271 111 151 149 144 145 151 159 166 167 164 168 169 169 169 164 162 162 159 164 163 162
185 201 2 352 350 100 304 207 176 188 284 22 144 149 143 142 148 161 172 172 173 175 172 173 175 174 172 170 170 162 168 177
205 248 312 321 322 331 281 210 200 196 88 131 150 161 158 163 165 176 180 182 183 181 176 174 177 179 189 184 185 187 187 189
217 249 281 310 305 340 209 220 238 228 172 161 170 173 173 175 182 184 184 186 190 185 188 187 186 184 188 192 187 195 199 191
281 231 273 284 302 310 198 294 201 236 178 167 184 182 183 183 183 184 190 194 191 191 190 195 194 193 189 192 191 201 202 200
257 269 251 273 258 301 263 257 309 155 164 175 193 191 196 199 194 196 201 197 195 194 194 194 197 195 199 201 197 199 197 202
271 263 205 216 263 195 249 253 289 192 193 181 196 200 196 198 200 204 208 207 202 203 198 195 203 199 198 198 200 203 207 208
223 226 237 183 172 218 223 219 244 256 222 212 205 194 210 204 209 205 209 205 207 204 202 202 199 198 197 200 198 209 210 206
173 195 70 229 238 237 229 224 235 234 227 224 215 220 220 212 215 212 209 209 204 204 205 209 205 200 198 197 203 211 211 204
292 34 107 229 237 242 296 277 257 238 246 244 246 237 232 224 224 218 216 208 204 205 208 205 206 209 207 208 217 216 215 211
267 151 303 209 258 313 357 0 333 7 334 332 322 332 327 307 297 274 241 230 217 206 210 203 200 201 209 211 217 219 218 214
264 229 266 205 260 35 52 63 61 57 40 23 18 354 2 351 325 273 235 230 225 220 213 199 200 194 206 212 209 217 216 212
278 227 215 176 169 70 56 57 62 65 58 35 24 17 8 360 354 334 285 218 213 219 213 208 207 208 202 200 214 224 218 215
265 123 159 152 188 143 79 64 57 48 46 44 34 19 9 8 4 348 331 287 248 221 212 211 219 197 183 172 198 202 209 208
188 191 203 238 197 131 118 83 59 44 35 25 19 17 13 8 8 360 341 314 277 248 223 206 200 209 201 200 204 212 204 202